Location: Castelbiague
(43.0361°N, 0.9246°E)
Time: 14:55:39
(UTC+00:00)

Meteor 2-5 Rocket - Pass Details

Date: 17 June 2021
Orbit: 833 x 911 km, 81.2° (Epoch: 30 July)

Event Time Altitude Azimuth Distance (km) Brightness Sun altitude
Exits shadow 22:18:39 28° 198° (SSW) 1,531 4.6 -19.8°
Maximum altitude 22:21:42 78° 281° (W) 862 3.7 -20.0°
Drops below altitude 10° 22:27:19 10° 7° (N) 2,478 7.0 -20.4°
Sets 22:29:46 0° 9° (N) 3,428 7.9 -20.6°
